Time,TemperatureF,DewpointF,PressureIn,WindDirection,WindDirectionDegrees,WindSpeedMPH,WindSpeedGustMPH,Humidity,HourlyPrecipIn,Conditions,Clouds,dailyrainin,SolarRadiationWatts/m^2,SoftwareType,DateUTC
2013-09-24 00:10:00,49.5,38.0,30.23,NNE,12,0.0,3.0,66,0.00,,,0.02,0,weatherlink.com 1.10,2013-09-24 06:10:00,
2013-09-24 00:25:00,49.8,38.0,30.23,NE,38,0.0,0.0,65,0.00,,,0.02,0,weatherlink.com 1.10,2013-09-24 06:25:00,
2013-09-24 00:40:00,49.0,39.0,30.24,NNE,28,5.0,6.0,68,0.00,,,0.02,0,weatherlink.com 1.10,2013-09-24 06:40:00,
2013-09-24 00:55:00,49.7,38.0,30.23,NE,51,8.0,10.0,65,0.00,,,0.00,0,weatherlink.com 1.10,2013-09-24 06:55:00,
2013-09-24 01:10:00,51.9,38.0,30.23,NE,35,0.0,7.0,59,0.00,,,0.00,0,weatherlink.com 1.10,2013-09-24 07:10:00,
2013-09-24 01:25:00,48.2,40.0,30.23,NNE,33,4.0,5.0,72,0.00,,,0.00,0,weatherlink.com 1.10,2013-09-24 07:25:00,
2013-09-24 01:40:00,49.2,39.0,30.22,North,355,6.0,10.0,67,0.00,,,0.00,0,weatherlink.com 1.10,2013-09-24 07:40:00,
2013-09-24 01:55:00,49.0,39.0,30.22,NNE,19,5.0,7.0,68,0.00,,,0.00,0,weatherlink.com 1.10,2013-09-24 07:55:00,
2013-09-24 02:10:00,48.4,39.0,30.22,NNE,33,0.0,1.0,71,0.00,,,0.00,0,weatherlink.com 1.10,2013-09-24 08:10:00,
2013-09-24 02:25:00,47.7,39.0,30.22,NNE,33,0.0,0.0,73,0.00,,,0.00,0,weatherlink.com 1.10,2013-09-24 08:25:00,
2013-09-24 02:40:00,47.4,38.0,30.22,NNE,22,5.0,6.0,71,0.00,,,0.00,0,weatherlink.com 1.10,2013-09-24 08:40:00,
2013-09-24 02:55:00,47.5,39.0,30.22,North,360,4.0,9.0,72,0.00,,,0.00,0,weatherlink.com 1.10,2013-09-24 08:55:00,
2013-09-24 03:10:00,46.3,39.0,30.22,North,11,7.0,9.0,76,0.00,,,0.00,0,weatherlink.com 1.10,2013-09-24 09:10:00,
2013-09-24 03:25:00,46.3,39.0,30.21,NNE,23,7.0,9.0,76,0.00,,,0.00,0,weatherlink.com 1.10,2013-09-24 09:25:00,
2013-09-24 03:40:00,46.9,39.0,30.21,North,360,5.0,8.0,74,0.00,,,0.00,0,weatherlink.com 1.10,2013-09-24 09:40:00,
2013-09-24 03:55:00,46.1,39.0,30.21,NNE,22,7.0,8.0,76,0.00,,,0.00,0,weatherlink.com 1.10,2013-09-24 09:55:00,
2013-09-24 04:10:00,46.1,39.0,30.20,NNE,24,8.0,10.0,77,0.00,,,0.00,0,weatherlink.com 1.10,2013-09-24 10:10:00,
2013-09-24 04:25:00,46.6,39.0,30.20,North,5,5.0,8.0,76,0.00,,,0.00,0,weatherlink.com 1.10,2013-09-24 10:25:00,
2013-09-24 04:40:00,46.0,40.0,30.20,NNE,23,5.0,8.0,79,0.00,,,0.00,0,weatherlink.com 1.10,2013-09-24 10:40:00,
2013-09-24 04:55:00,46.0,40.0,30.19,NNE,28,4.0,9.0,78,0.00,,,0.00,0,weatherlink.com 1.10,2013-09-24 10:55:00,
2013-09-24 05:10:00,46.2,40.0,30.19,NNW,348,5.0,6.0,78,0.00,,,0.00,0,weatherlink.com 1.10,2013-09-24 11:10:00,
2013-09-24 05:40:00,45.6,40.0,30.19,NE,50,6.0,8.0,80,0.00,,,0.00,0,weatherlink.com 1.10,2013-09-24 11:40:00,
2013-09-24 05:56:00,45.6,40.0,30.18,NNE,17,8.0,9.0,81,0.00,,,0.00,0,weatherlink.com 1.10,2013-09-24 11:56:00,
2013-09-24 06:10:00,45.8,40.0,30.18,NNE,28,11.0,13.0,80,0.00,,,0.00,0,weatherlink.com 1.10,2013-09-24 12:10:00,
2013-09-24 06:26:00,46.5,40.0,30.17,North,5,7.0,13.0,78,0.00,,,0.00,0,weatherlink.com 1.10,2013-09-24 12:26:00,
2013-09-24 06:41:00,46.0,40.0,30.17,NNW,342,7.0,9.0,80,0.00,,,0.00,0,weatherlink.com 1.10,2013-09-24 12:41:00,
2013-09-24 06:56:00,44.9,41.0,30.17,NE,46,4.0,9.0,85,0.00,,,0.00,0,weatherlink.com 1.10,2013-09-24 12:56:00,
2013-09-24 07:11:00,45.0,41.0,30.17,NE,51,0.0,3.0,85,0.00,,,0.00,0,weatherlink.com 1.10,2013-09-24 13:11:00,
2013-09-24 07:26:00,44.9,41.0,30.17,NE,51,0.0,0.0,86,0.00,,,0.00,0,weatherlink.com 1.10,2013-09-24 13:26:00,
2013-09-24 07:41:00,44.7,41.0,30.16,North,355,7.0,8.0,87,0.00,,,0.00,9,weatherlink.com 1.10,2013-09-24 13:41:00,
2013-09-24 07:56:00,43.6,41.0,30.16,NNE,12,10.0,11.0,90,0.00,,,0.00,19,weatherlink.com 1.10,2013-09-24 13:56:00,
2013-09-24 08:11:00,43.4,41.0,30.15,North,5,10.0,12.0,92,0.00,,,0.00,33,weatherlink.com 1.10,2013-09-24 14:11:00,
2013-09-24 08:26:00,43.7,42.0,30.15,North,5,11.0,13.0,92,0.00,,,0.00,26,weatherlink.com 1.10,2013-09-24 14:26:00,
2013-09-24 08:41:00,43.6,42.0,30.15,North,360,11.0,14.0,93,0.00,,,0.00,32,weatherlink.com 1.10,2013-09-24 14:41:00,
2013-09-24 08:56:00,43.6,42.0,30.16,North,360,12.0,14.0,94,0.00,,,0.00,30,weatherlink.com 1.10,2013-09-24 14:56:00,
2013-09-24 09:11:00,43.8,42.0,30.17,NNE,18,11.0,14.0,94,0.01,,,0.01,28,weatherlink.com 1.10,2013-09-24 15:11:00,
2013-09-24 09:26:00,45.5,42.0,30.17,NNE,31,8.0,13.0,88,0.01,,,0.01,25,weatherlink.com 1.10,2013-09-24 15:26:00,
2013-09-24 09:41:00,46.0,42.0,30.16,East,80,3.0,9.0,86,0.01,,,0.01,51,weatherlink.com 1.10,2013-09-24 15:41:00,
2013-09-24 09:56:00,44.3,42.0,30.16,WNW,303,3.0,6.0,92,0.01,,,0.01,58,weatherlink.com 1.10,2013-09-24 15:56:00,
2013-09-24 10:11:00,44.9,43.0,30.15,NW,325,5.0,5.0,92,0.00,,,0.01,58,weatherlink.com 1.10,2013-09-24 16:11:00,
2013-09-24 10:26:00,44.5,43.0,30.15,NNE,12,3.0,7.0,94,0.01,,,0.02,76,weatherlink.com 1.10,2013-09-24 16:26:00,
2013-09-24 10:56:00,44.7,43.0,30.16,North,5,0.0,4.0,94,0.01,,,0.02,53,weatherlink.com 1.10,2013-09-24 16:56:00,
2013-09-24 11:11:00,45.3,44.0,30.16,NW,311,0.0,0.0,94,0.01,,,0.02,90,weatherlink.com 1.10,2013-09-24 17:11:00,
2013-09-24 11:26:00,45.0,44.0,30.15,South,188,10.0,14.0,95,0.00,,,0.02,81,weatherlink.com 1.10,2013-09-24 17:26:00,
2013-09-24 11:41:00,44.5,43.0,30.15,SSW,202,12.0,15.0,95,0.00,,,0.02,51,weatherlink.com 1.10,2013-09-24 17:41:00,
2013-09-24 11:56:00,44.9,44.0,30.14,SSW,200,9.0,14.0,95,0.01,,,0.03,93,weatherlink.com 1.10,2013-09-24 17:56:00,
2013-09-24 12:11:00,45.2,43.0,30.14,SSW,195,10.0,13.0,93,0.01,,,0.03,146,weatherlink.com 1.10,2013-09-24 18:11:00,
2013-09-24 12:26:00,45.7,44.0,30.13,SSW,199,7.0,13.0,92,0.01,,,0.03,139,weatherlink.com 1.10,2013-09-24 18:26:00,
2013-09-24 12:41:00,45.8,43.0,30.12,SW,223,7.0,10.0,91,0.02,,,0.04,185,weatherlink.com 1.10,2013-09-24 18:41:00,
2013-09-24 12:56:00,45.7,44.0,30.11,SW,214,6.0,8.0,92,0.01,,,0.04,243,weatherlink.com 1.10,2013-09-24 18:56:00,
2013-09-24 13:11:00,46.2,44.0,30.10,SW,217,7.0,9.0,93,0.01,,,0.04,195,weatherlink.com 1.10,2013-09-24 19:11:00,
2013-09-24 13:26:00,46.1,44.0,30.09,SSW,208,7.0,9.0,93,0.01,,,0.04,281,weatherlink.com 1.10,2013-09-24 19:26:00,
2013-09-24 13:41:00,46.6,45.0,30.09,SSW,213,7.0,10.0,93,0.00,,,0.04,243,weatherlink.com 1.10,2013-09-24 19:41:00,
2013-09-24 13:56:00,47.0,45.0,30.08,SSW,194,7.0,11.0,91,0.01,,,0.05,172,weatherlink.com 1.10,2013-09-24 19:56:00,
2013-09-24 14:26:00,47.5,45.0,30.07,SSW,211,8.0,11.0,90,0.01,,,0.05,123,weatherlink.com 1.10,2013-09-24 20:26:00,
2013-09-24 14:41:00,47.4,45.0,30.07,South,182,4.0,12.0,90,0.02,,,0.06,105,weatherlink.com 1.10,2013-09-24 20:41:00,
2013-09-24 14:56:00,47.5,45.0,30.07,SSW,204,6.0,9.0,89,0.01,,,0.06,113,weatherlink.com 1.10,2013-09-24 20:56:00,
2013-09-24 15:11:00,47.8,45.0,30.06,SSW,198,8.0,9.0,90,0.01,,,0.06,107,weatherlink.com 1.10,2013-09-24 21:11:00,
2013-09-24 15:27:00,47.9,45.0,30.05,South,174,1.0,9.0,89,0.03,,,0.08,98,weatherlink.com 1.10,2013-09-24 21:27:00,
2013-09-24 15:42:00,47.9,44.0,30.06,South,184,3.0,8.0,86,0.02,,,0.08,81,weatherlink.com 1.10,2013-09-24 21:42:00,
2013-09-24 15:57:00,47.8,45.0,30.06,South,182,3.0,7.0,88,0.02,,,0.08,60,weatherlink.com 1.10,2013-09-24 21:57:00,
2013-09-24 16:12:00,48.0,44.0,30.06,SSE,166,5.0,8.0,87,0.02,,,0.08,65,weatherlink.com 1.10,2013-09-24 22:12:00,
2013-09-24 16:27:00,48.0,44.0,30.06,SSE,167,3.0,10.0,86,0.00,,,0.08,65,weatherlink.com 1.10,2013-09-24 22:27:00,
2013-09-24 16:42:00,47.9,44.0,30.06,SSE,150,8.0,10.0,87,0.00,,,0.08,51,weatherlink.com 1.10,2013-09-24 22:42:00,
2013-09-24 17:12:00,47.6,45.0,30.05,SSE,159,8.0,11.0,90,0.00,,,0.08,49,weatherlink.com 1.10,2013-09-24 23:12:00,
2013-09-24 17:27:00,47.5,45.0,30.05,SSE,154,10.0,11.0,89,0.01,,,0.09,53,weatherlink.com 1.10,2013-09-24 23:27:00,
2013-09-24 17:42:00,47.6,45.0,30.06,SSE,163,7.0,10.0,90,0.01,,,0.09,58,weatherlink.com 1.10,2013-09-24 23:42:00,
2013-09-24 17:57:00,47.6,45.0,30.05,SSE,161,8.0,11.0,89,0.01,,,0.09,49,weatherlink.com 1.10,2013-09-24 23:57:00,
2013-09-24 18:12:00,47.7,45.0,30.05,SSE,159,6.0,10.0,89,0.01,,,0.09,40,weatherlink.com 1.10,2013-09-25 00:12:00,
2013-09-24 18:27:00,47.8,45.0,30.06,SSE,159,7.0,10.0,88,0.00,,,0.09,39,weatherlink.com 1.10,2013-09-25 00:27:00,
2013-09-24 18:42:00,47.8,44.0,30.05,SSE,148,6.0,9.0,87,0.00,,,0.09,23,weatherlink.com 1.10,2013-09-25 00:42:00,
2013-09-24 18:57:00,47.9,44.0,30.05,SE,143,6.0,9.0,87,0.00,,,0.09,18,weatherlink.com 1.10,2013-09-25 00:57:00,
2013-09-24 19:12:00,47.9,44.0,30.05,SSE,148,9.0,10.0,85,0.00,,,0.09,12,weatherlink.com 1.10,2013-09-25 01:12:00,
2013-09-24 19:27:00,47.9,43.0,30.05,SSE,148,8.0,11.0,84,0.00,,,0.09,0,weatherlink.com 1.10,2013-09-25 01:27:00,
2013-09-24 19:42:00,48.0,43.0,30.05,SE,144,10.0,12.0,84,0.00,,,0.09,0,weatherlink.com 1.10,2013-09-25 01:42:00,
2013-09-24 19:57:00,48.0,43.0,30.06,SE,141,6.0,11.0,84,0.00,,,0.09,0,weatherlink.com 1.10,2013-09-25 01:57:00,
2013-09-24 20:12:00,48.0,43.0,30.06,SSE,149,8.0,12.0,84,0.00,,,0.09,0,weatherlink.com 1.10,2013-09-25 02:12:00,
2013-09-24 20:27:00,48.0,44.0,30.07,SSE,157,6.0,9.0,85,0.00,,,0.09,0,weatherlink.com 1.10,2013-09-25 02:27:00,
2013-09-24 20:42:00,47.8,44.0,30.07,SSE,165,0.0,6.0,86,0.00,,,0.09,0,weatherlink.com 1.10,2013-09-25 02:42:00,
2013-09-24 20:57:00,47.3,45.0,30.08,South,169,0.0,0.0,90,0.02,,,0.11,0,weatherlink.com 1.10,2013-09-25 02:57:00,
2013-09-24 21:12:00,47.1,44.0,30.08,SSE,165,3.0,4.0,89,0.04,,,0.13,0,weatherlink.com 1.10,2013-09-25 03:12:00,
2013-09-24 21:27:00,46.8,44.0,30.08,South,169,0.0,5.0,89,0.05,,,0.14,0,weatherlink.com 1.10,2013-09-25 03:27:00,
2013-09-24 21:42:00,46.8,44.0,30.08,SE,146,4.0,7.0,90,0.06,,,0.15,0,weatherlink.com 1.10,2013-09-25 03:42:00,
2013-09-24 21:57:00,46.7,44.0,30.08,SSE,150,0.0,6.0,90,0.05,,,0.16,0,weatherlink.com 1.10,2013-09-25 03:57:00,
2013-09-24 22:12:00,46.6,44.0,30.07,SE,146,0.0,0.0,90,0.04,,,0.17,0,weatherlink.com 1.10,2013-09-25 04:12:00,
2013-09-24 22:27:00,46.5,44.0,30.07,SE,144,0.0,3.0,89,0.03,,,0.17,0,weatherlink.com 1.10,2013-09-25 04:27:00,
2013-09-24 22:42:00,46.2,44.0,30.06,North,355,5.0,7.0,93,0.02,,,0.17,0,weatherlink.com 1.10,2013-09-25 04:42:00,
2013-09-24 22:57:00,45.8,44.0,30.05,NE,45,6.0,9.0,92,0.01,,,0.17,0,weatherlink.com 1.10,2013-09-25 04:57:00,
2013-09-24 23:12:00,46.0,43.0,30.06,ENE,60,0.0,6.0,90,0.00,,,0.17,0,weatherlink.com 1.10,2013-09-25 05:12:00,
2013-09-24 23:27:00,46.3,43.0,30.06,NNE,21,0.0,0.0,89,0.00,,,0.17,0,weatherlink.com 1.10,2013-09-25 05:27:00,
2013-09-24 23:42:00,46.0,44.0,30.06,NNE,21,0.0,0.0,92,0.00,,,0.17,0,weatherlink.com 1.10,2013-09-25 05:42:00,
2013-09-24 23:57:00,45.8,44.0,30.06,NNE,18,5.0,6.0,92,0.00,,,0.17,0,weatherlink.com 1.10,2013-09-25 05:57:00,